Stations météo

réclame
Mon MeteoGroup
Istres, France (7647): Température de l'air & dewpoint: 02.07.2020 08:00:00 - 08.07.2020 08:00:00 (CEST)Istres, France (7647): Température de l'air 5cm: 02.07.2020 08:00:00 - 08.07.2020 08:00:00 (CEST)Istres, France (7647): Vitesse du vent & gusts: 02.07.2020 08:00:00 - 08.07.2020 08:00:00 (CEST)Istres, France (7647): Direction du vent: 02.07.2020 08:00:00 - 08.07.2020 08:00:00 (CEST)Istres, France (7647): reduced air pressure: 02.07.2020 08:00:00 - 08.07.2020 08:00:00 (CEST)Istres, France (7647): visibility: 02.07.2020 08:00:00 - 08.07.2020 08:00:00 (CEST)Istres, France (7647): Quantités de précipitations: 02.07.2020 08:00:00 - 08.07.2020 08:00:00 (CEST)
Date & Time tt [°C] td [°C] tt 5cm [°C] ff [km/h] ff [knt] fx [km/h] fx [knt] dd ppp [hPa] vv [km] rr [mm]
08.07.2020 08:00:00 20,8 7,8 17,2 8 4 11 6 NNE 1015,7 11 0,0
08.07.2020 07:00:00 19,1 7,5 16,3 7 4 10 5 NNE 1015,7 52 0,0
08.07.2020 06:00:00 18,8 6,6 17,2 6 3 20 11 N 1015,3 60 0,0
08.07.2020 05:00:00 19,7 6,4 17,2 11 6 17 9 NNW 1015,1 60 0,0
08.07.2020 04:00:00 19,3 6,4 17,8 12 6 16 8 NW 1015,4 60 0,0
08.07.2020 03:00:00 20,3 5,9 18,8 9 5 20 11 NNW 1015,5 60 0,0
08.07.2020 02:00:00 20,7 5,5 19,6 14 7 22 12 NW 1015,5 60 0,0
08.07.2020 01:00:00 21,2 5,9 20,3 16 9 22 12 NW 1015,5 60 0,0
08.07.2020 00:00:00 21,3 6,4 18,4 14 8 19 10 WNW 1015,5 60 0,0
07.07.2020 23:00:00 22,0 6,6 20,4 11 6 14 8 WNW 1015,4 60 0,0
07.07.2020 22:00:00 24,9 7,1 23,8 10 5 20 11 NNW 1015,0 60 0,0
07.07.2020 21:00:00 27,3 6,7 27,4 16 8 32 17 NNW 1014,5 59 0,0
07.07.2020 20:00:00 29,2 5,9 31,7 24 13 36 19 N 1014,1 49 0,0
07.07.2020 19:00:00 30,2 6,1 34,6 25 13 39 21 NNW 1013,9 37 0,0
07.07.2020 18:00:00 31,0 6,8 36,8 24 13 36 20 NNW 1013,7 37 0,0
07.07.2020 17:00:00 31,5 7,2 38,1 19 11 35 19 NW 1013,9 38 0,0
07.07.2020 16:00:00 31,1 6,9 38,2 18 10 35 19 NNW 1013,9 38 0,0
07.07.2020 15:00:00 30,7 7,2 36,7 19 11 37 20 NNW 1013,7 20 0,0
07.07.2020 14:00:00 29,5 6,8 34,3 25 14 41 22 N 1013,6 27 0,0
07.07.2020 13:00:00 27,6 6,9 32,4 32 18 48 26 NNW 1013,6 24 0,0
07.07.2020 12:00:00 26,4 6,9 30,3 32 17 49 27 N 1013,5 24 0,0
07.07.2020 11:00:00 24,5 6,3 28,1 36 20 56 30 N 1013,2 25 0,0
07.07.2020 10:00:00 23,0 5,9 25,5 35 19 57 31 N 1013,3 25 0,0
07.07.2020 09:00:00 21,4 5,7 23,0 37 20 66 36 N 1012,7 27 0,0
07.07.2020 08:00:00 20,5 4,9 21,3 42 23 69 37 N 1012,1 27 0,0
07.07.2020 07:00:00 20,0 4,5 19,6 48 26 74 40 N 1011,8 30 0,0
07.07.2020 06:00:00 20,1 4,1 19,6 53 29 95 51 NNW 1011,9 59 0,0
07.07.2020 05:00:00 20,4 4,4 20,0 56 30 94 51 NNW 1011,6 60 0,0
07.07.2020 04:00:00 20,6 5,0 20,2 58 31 97 53 NNW 1011,7 60 0,0
07.07.2020 03:00:00 21,2 5,5 20,9 59 32 85 46 NNW 1012,5 60 0,0
07.07.2020 02:00:00 21,7 5,1 21,3 46 25 78 42 NNW 1013,5 60 0,0
07.07.2020 01:00:00 22,4 4,9 22,0 51 28 84 45 NNW 1013,7 60 0,0
07.07.2020 00:00:00 23,3 3,8 23,0 49 26 77 41 NNW 1014,0 60 0,0
06.07.2020 23:00:00 24,3 4,1 23,9 43 23 71 39 NNW 1014,2 60 0,0
06.07.2020 22:00:00 25,1 4,8 24,7 41 22 61 33 N 1013,5 60 0,0
06.07.2020 21:00:00 26,7 4,4 26,9 39 21 69 37 N 1013,1 24 0,0
06.07.2020 20:00:00 27,6 5,8 28,0 48 26 74 40 N 1012,5 24 0,0
06.07.2020 19:00:00 29,7 7,6 33,2 44 24 72 39 N 1012,3 12 0,0
06.07.2020 18:00:00 29,8 9,3 33,8 48 26 78 42 N 1012,3 11 0,0
06.07.2020 17:00:00 30,9 11,3 35,0 50 27 72 39 NNW 1012,2 12 0,0
06.07.2020 16:00:00 30,9 12,8 36,5 44 24 67 36 N 1012,7 15 0,0
06.07.2020 15:00:00 31,7 13,5 36,0 47 25 70 38 NNW 1012,7 11 0,0
06.07.2020 14:00:00 31,1 12,9 35,3 49 27 83 45 NNW 1012,7 9 0,0
06.07.2020 13:00:00 30,0 13,3 34,2 49 26 81 44 N 1013,2 17 0,0
06.07.2020 12:00:00 29,2 13,4 32,3 60 33 91 49 NNW 1013,4 18 0,0
06.07.2020 11:00:00 27,9 14,9 31,1 54 29 80 43 NNW 1013,5 4,3 0,0
06.07.2020 10:00:00 26,9 15,6 29,6 51 27 74 40 NNW 1013,3 2,8 0,0
06.07.2020 09:00:00 26,2 16,2 27,9 46 25 68 37 NNW 1013,5 3,5 0,0
06.07.2020 08:00:00 25,4 15,7 26,1 41 22 63 34 NNW 1013,3 2,8 0,0
06.07.2020 07:00:00 25,0 15,6 24,0 41 22 61 33 NNW 1012,9 3,1 0,0
06.07.2020 06:00:00 24,6 15,5 24,1 31 17 45 24 NNW 1012,9 60 0,0
06.07.2020 05:00:00 24,9 15,2 24,1 29 15 41 22 NNW 1013,0 60 0,0
06.07.2020 04:00:00 25,9 14,7 25,3 30 16 53 28 NNW 1013,3 60 0,0
06.07.2020 03:00:00 26,4 14,8 25,7 31 17 45 24 NNW 1013,8 60 0,0
06.07.2020 02:00:00 26,8 14,5 26,3 30 16 45 24 NNW 1013,9 60 0,0
06.07.2020 01:00:00 28,0 14,3 27,4 30 16 48 26 NNW 1014,1 60 0,0
06.07.2020 00:00:00 29,0 14,0 28,5 27 14 41 22 N 1014,1 60 0,0
05.07.2020 23:00:00 29,2 14,6 28,3 23 13 36 19 NNW 1014,1 60 0,0
05.07.2020 22:00:00 29,7 15,8 28,6 13 7 25 14 NW 1013,9 60 0,0
05.07.2020 21:00:00 31,9 15,0 32,3 12 7 36 20 N 1013,7 60 0,0
05.07.2020 20:00:00 33,3 14,4 35,8 25 13 35 19 N 1013,7 44 0,0
05.07.2020 19:00:00 34,0 15,0 39,1 18 10 35 19 N 1013,9 44 0,0
05.07.2020 18:00:00 34,5 13,9 41,1 18 10 34 19 N 1014,3 55 0,0
05.07.2020 17:00:00 34,3 14,2 41,0 19 10 35 19 NNW 1014,9 36 0,0
05.07.2020 16:00:00 33,8 13,8 40,9 21 11 37 20 NNW 1015,3 40 0,0
05.07.2020 15:00:00 32,7 13,4 39,3 19 11 38 21 NNW 1015,9 25 0,0
05.07.2020 14:00:00 31,8 14,0 38,2 21 12 43 23 NNW 1016,4 19 0,0
05.07.2020 13:00:00 30,9 13,7 36,1 25 13 44 24 NNW 1017,0 19 0,0
05.07.2020 12:00:00 29,5 13,7 33,8 30 16 54 29 NNW 1017,3 18 0,0
05.07.2020 11:00:00 28,2 12,9 32,2 29 15 50 27 N 1017,5 17 0,0
05.07.2020 10:00:00 27,2 12,4 30,1 33 18 50 27 NNW 1017,3 19 0,0
05.07.2020 09:00:00 25,8 11,9 29,1 31 17 44 24 NNW 1017,3 18 0,0
05.07.2020 08:00:00 24,8 11,7 25,6 19 11 37 20 NNW 1017,1 17 0,0
05.07.2020 07:00:00 24,0 10,6 22,7 29 16 48 26 N 1016,9 13 0,0
05.07.2020 06:00:00 23,2 9,9 22,6 32 17 49 27 NNW 1016,7 60 0,0
05.07.2020 05:00:00 23,2 9,9 22,1 29 15 38 21 NNW 1016,9 60 0,0
05.07.2020 04:00:00 22,9 9,7 22,2 23 12 49 26 NW 1017,1 60 0,0
05.07.2020 03:00:00 23,6 9,6 22,9 32 17 43 23 NW 1017,3 60 0,0
05.07.2020 02:00:00 24,3 9,1 23,7 27 15 48 26 NW 1017,6 60 0,0
05.07.2020 01:00:00 25,2 8,6 24,6 34 18 45 25 NNW 1017,6 60 0,0
05.07.2020 00:00:00 25,7 7,8 24,9 22 12 36 19 NNW 1017,7 60 0,0
04.07.2020 23:00:00 25,3 8,3 23,1 16 9 29 15 NNW 1017,9 60 0,0
04.07.2020 22:00:00 26,4 9,7 25,2 14 8 29 15 NNW 1017,7 60 0,0
04.07.2020 21:00:00 28,3 10,5 28,1 16 8 28 15 N 1017,0 59 0,0
04.07.2020 20:00:00 30,0 9,5 32,6 20 11 36 19 N 1016,8 27 0,0
04.07.2020 19:00:00 30,9 6,7 35,4 29 16 47 25 N 1016,8 18 0,0
04.07.2020 18:00:00 30,6 7,1 36,0 27 15 45 24 NNW 1017,2 17 0,0
04.07.2020 17:00:00 30,7 9,6 36,9 27 14 42 23 NNW 1017,4 20 0,0
04.07.2020 16:00:00 30,5 10,5 36,9 19 10 38 20 NW 1017,7 22 0,0
04.07.2020 15:00:00 29,2 10,8 32,4 21 11 45 25 NNW 1018,0 19 0,0
04.07.2020 14:00:00 29,0 11,1 32,6 26 14 39 21 NNW 1018,3 20 0,0
04.07.2020 13:00:00 28,1 10,3 34,1 25 13 37 20 NNW 1018,6 22 0,0
04.07.2020 12:00:00 26,6 10,3 31,6 20 11 36 20 N 1018,6 23 0,0
04.07.2020 11:00:00 25,6 10,6 30,1 23 13 42 23 NNW 1018,5 22 0,0
04.07.2020 10:00:00 23,9 10,2 27,5 23 13 35 19 N 1018,6 15 0,0
04.07.2020 09:00:00 22,3 9,8 24,5 26 14 39 21 N 1018,5 14 0,0
04.07.2020 08:00:00 21,0 9,9 21,5 23 12 37 20 N 1018,2 14 0,0
04.07.2020 07:00:00 19,7 9,3 18,5 22 12 36 19 NNW 1018,0 14 0,0
04.07.2020 06:00:00 19,0 9,2 18,5 19 10 36 19 NNW 1017,5 60 0,0
04.07.2020 05:00:00 19,6 8,9 18,8 23 13 37 20 NW 1017,2 60 0,0
04.07.2020 04:00:00 19,9 8,2 18,9 23 12 41 22 NW 1017,2 60 0,0
04.07.2020 03:00:00 20,4 8,4 19,9 25 13 49 26 NW 1016,9 60 0,0
04.07.2020 02:00:00 21,3 7,9 20,8 34 18 48 26 NNW 1016,6 60 0,0
04.07.2020 01:00:00 21,8 7,6 21,4 36 19 58 31 NW 1016,8 60 0,0
04.07.2020 00:00:00 22,3 7,7 21,9 36 19 56 30 NNW 1016,5 60 0,0
03.07.2020 23:00:00 23,2 7,3 22,9 37 20 74 40 NNW 1016,1 60 0,0
03.07.2020 22:00:00 23,9 7,1 23,6 46 25 69 38 NNW 1015,3 60 0,0
03.07.2020 21:00:00 24,9 7,1 25,2 47 25 76 41 NNW 1014,8 15 0,0
03.07.2020 20:00:00 26,2 7,7 28,0 46 25 67 36 NNW 1014,6 7 0,0
03.07.2020 19:00:00 27,3 7,7 30,2 46 25 72 39 NNW 1013,8 4,1 0,0
03.07.2020 18:00:00 27,3 7,7 31,2 49 27 71 39 NNW 1014,2 3,3 0,0
03.07.2020 17:00:00 27,7 8,0 32,1 49 26 74 40 NNW 1013,7 3,0 0,0
03.07.2020 16:00:00 27,5 6,8 32,3 53 29 75 41 NNW 1014,0 5 0,0
03.07.2020 15:00:00 27,6 7,4 32,2 48 26 68 37 NNW 1014,3 7 0,0
03.07.2020 14:00:00 27,4 8,3 31,7 46 25 67 36 NNW 1014,9 9 0,0
03.07.2020 13:00:00 26,1 7,6 30,6 45 24 72 39 NNW 1015,7 8 0,0
03.07.2020 12:00:00 25,5 7,6 28,4 44 24 69 37 NNW 1015,8 8 0,0
03.07.2020 11:00:00 23,8 8,2 26,8 53 28 71 39 NNW 1015,8 6 0,0
03.07.2020 10:00:00 23,2 9,2 25,2 45 24 75 41 NNW 1016,1 4,7 0,0
03.07.2020 09:00:00 21,8 9,7 23,5 44 24 72 39 NNW 1016,2 5 0,0
03.07.2020 08:00:00 20,9 10,1 21,5 39 21 56 30 NNW 1015,8 7 0,0
03.07.2020 07:00:00 20,2 10,0 19,6 33 18 58 32 NNW 1015,7 7 0,0
03.07.2020 06:00:00 19,9 10,6 19,4 31 17 49 26 NW 1015,5 60 0,0
03.07.2020 05:00:00 20,5 11,1 20,0 25 13 45 25 NW 1015,7 60 0,0
03.07.2020 04:00:00 21,1 11,4 20,8 30 16 48 26 NW 1015,6 60 0,0
03.07.2020 03:00:00 22,2 11,0 21,8 32 18 56 30 N 1014,9 60 0,0
03.07.2020 02:00:00 22,6 11,0 22,4 39 21 57 31 NNW 1014,7 60 0,0
03.07.2020 01:00:00 23,0 12,3 22,8 41 22 57 31 NNW 1014,4 60 0,0
03.07.2020 00:00:00 23,8 13,6 23,6 35 19 53 28 N 1013,9 60 0,0
02.07.2020 23:00:00 24,7 16,1 24,5 28 15 45 25 N 1013,2 60 0,0
02.07.2020 22:00:00 27,4 15,1 25,8 24 13 39 21 NW 1011,9 60 0,0
02.07.2020 21:00:00 27,9 18,0 28,1 9 5 24 13 WSW 1011,3 60 0,0
02.07.2020 20:00:00 29,6 17,1 30,1 19 11 28 15 WSW 1011,7 59 0,0
02.07.2020 19:00:00 30,3 17,0 32,6 21 11 33 18 W 1011,6 47 0,0
02.07.2020 18:00:00 31,5 17,4 34,1 24 13 37 20 WSW 1011,4 20 0,0
02.07.2020 17:00:00 30,1 16,5 32,9 30 16 44 24 WSW 1011,8 23 0,0
02.07.2020 16:00:00 32,7 17,7 37,9 23 12 37 20 W 1011,8 20 0,0
02.07.2020 15:00:00 31,5 15,9 36,7 13 7 37 20 NNE 1012,3 43 0,0
02.07.2020 14:00:00 29,0 16,9 28,8 14 8 28 15 NW 1012,9 48 0,0
02.07.2020 13:00:00 27,6 17,5 28,5 17 9 28 15 NW 1012,8 54 0,0
02.07.2020 12:00:00 26,8 17,6 28,2 15 8 30 16 NNW 1012,4 53 0,0
02.07.2020 11:00:00 27,3 17,2 28,8 18 10 29 16 N 1012,5 33 0,0
02.07.2020 10:00:00 26,8 16,7 28,4 20 11 32 18 N 1012,7 49 0,0
02.07.2020 09:00:00 25,6 16,7 27,2 24 13 34 19 NNW 1012,9 40 0,0
02.07.2020 08:00:00 22,8 16,8 23,3 13 7 18 10 NW 1012,7 52 0,0

tt = Température de l'air
td = dewpoint
tt 5cm = Température de l'air 5cm
ff = Vitesse du vent
fx = gusts
dd = Direction du vent
ppp = reduced air pressure
vv = visibility
rr = Quantités de précipitations

stations d'obs. à proximité